Time,TemperatureF,DewpointF,PressureIn,WindDirection,WindDirectionDegrees,WindSpeedMPH,WindSpeedGustMPH,Humidity,HourlyPrecipIn,Conditions,Clouds,dailyrainin,SolarRadiationWatts/m^2,SoftwareType,DateUTC
2013-09-06 00:00:00,65.9,52.5,30.39,SSE,168,0.0,-999.0,62,0.00,,,0.00,0,WeatherHawk,2013-09-06 04:00:00,
2013-09-06 00:04:00,66.3,51.1,30.39,SSE,168,0.0,-999.0,58,0.00,,,0.00,0,WeatherHawk,2013-09-06 04:04:00,
2013-09-06 00:09:00,66.3,50.1,30.39,WSW,257,0.0,-999.0,56,0.00,,,0.00,0,WeatherHawk,2013-09-06 04:09:00,
2013-09-06 00:14:00,66.2,49.1,30.38,ESE,116,0.0,-999.0,54,0.00,,,0.00,0,WeatherHawk,2013-09-06 04:14:00,
2013-09-06 00:19:00,66.8,47.6,30.40,SSE,167,0.0,-999.0,50,0.00,,,0.00,0,WeatherHawk,2013-09-06 04:19:00,
2013-09-06 00:24:00,66.2,48.0,30.40,SSE,168,0.0,-999.0,52,0.00,,,0.00,0,WeatherHawk,2013-09-06 04:24:00,
2013-09-06 00:29:00,65.8,47.7,30.39,SSE,167,0.0,-999.0,52,0.00,,,0.00,0,WeatherHawk,2013-09-06 04:29:00,
2013-09-06 00:34:00,66.8,47.0,30.40,SE,131,0.0,-999.0,49,0.00,,,0.00,1,WeatherHawk,2013-09-06 04:34:00,
2013-09-06 00:39:00,66.8,44.1,30.41,West,262,0.0,-999.0,44,0.00,,,0.00,0,WeatherHawk,2013-09-06 04:39:00,
2013-09-06 00:44:00,66.2,42.4,30.40,WNW,285,0.0,-999.0,42,0.00,,,0.00,0,WeatherHawk,2013-09-06 04:44:00,
2013-09-06 00:49:00,65.9,42.2,30.41,SSE,149,0.0,-999.0,42,0.00,,,0.00,0,WeatherHawk,2013-09-06 04:49:00,
2013-09-06 00:54:00,66.2,42.5,30.41,WNW,288,0.0,-999.0,42,0.00,,,0.00,0,WeatherHawk,2013-09-06 04:54:00,
2013-09-06 00:59:00,65.6,41.3,30.41,North,10,0.0,-999.0,41,0.00,,,0.00,1,WeatherHawk,2013-09-06 04:59:00,
2013-09-06 01:04:00,65.7,38.7,30.41,ENE,61,0.0,-999.0,37,0.00,,,0.00,0,WeatherHawk,2013-09-06 05:04:00,
2013-09-06 01:09:00,65.9,38.9,30.42,SSW,208,0.0,-999.0,37,0.00,,,0.00,0,WeatherHawk,2013-09-06 05:09:00,
2013-09-06 01:14:00,64.9,38.7,30.42,SSE,163,0.0,-999.0,38,0.00,,,0.00,0,WeatherHawk,2013-09-06 05:14:00,
2013-09-06 01:19:00,65.4,37.0,30.42,ENE,68,0.0,-999.0,35,0.00,,,0.00,1,WeatherHawk,2013-09-06 05:19:00,
2013-09-06 01:24:00,65.1,37.4,30.41,WNW,287,0.0,-999.0,36,0.00,,,0.00,0,WeatherHawk,2013-09-06 05:24:00,
2013-09-06 01:29:00,64.7,36.4,30.42,ENE,65,0.0,-999.0,35,0.00,,,0.00,0,WeatherHawk,2013-09-06 05:29:00,
2013-09-06 01:34:00,64.4,36.8,30.42,NE,36,0.0,-999.0,36,0.00,,,0.00,0,WeatherHawk,2013-09-06 05:34:00,
2013-09-06 01:39:00,64.8,38.6,30.42,NW,305,0.0,-999.0,38,0.00,,,0.00,0,WeatherHawk,2013-09-06 05:39:00,
2013-09-06 01:44:00,63.4,39.9,30.42,West,259,0.0,-999.0,42,0.00,,,0.00,1,WeatherHawk,2013-09-06 05:44:00,
2013-09-06 01:49:00,63.2,39.1,30.42,West,259,0.0,-999.0,41,0.00,,,0.00,0,WeatherHawk,2013-09-06 05:49:00,
2013-09-06 01:54:00,62.6,38.0,30.42,West,259,0.0,-999.0,40,0.00,,,0.00,0,WeatherHawk,2013-09-06 05:54:00,
2013-09-06 01:59:00,62.2,38.2,30.43,WNW,294,0.0,-999.0,41,0.00,,,0.00,0,WeatherHawk,2013-09-06 05:59:00,
2013-09-06 02:04:00,61.3,42.5,30.43,WSW,238,0.0,-999.0,50,0.00,,,0.00,0,WeatherHawk,2013-09-06 06:04:00,
2013-09-06 02:09:00,61.7,43.9,30.42,North,351,0.0,-999.0,52,0.00,,,0.00,0,WeatherHawk,2013-09-06 06:09:00,
2013-09-06 02:14:00,62.4,41.4,30.43,North,351,0.0,-999.0,46,0.00,,,0.00,0,WeatherHawk,2013-09-06 06:14:00,
2013-09-06 02:19:00,62.5,41.5,30.43,North,351,0.0,-999.0,46,0.00,,,0.00,0,WeatherHawk,2013-09-06 06:19:00,
2013-09-06 02:24:00,62.1,41.1,30.43,North,351,0.0,-999.0,46,0.00,,,0.00,0,WeatherHawk,2013-09-06 06:24:00,
2013-09-06 02:29:00,60.9,40.0,30.43,East,80,0.0,-999.0,46,0.00,,,0.00,0,WeatherHawk,2013-09-06 06:29:00,
2013-09-06 02:34:00,60.4,40.1,30.42,East,80,0.0,-999.0,47,0.00,,,0.00,1,WeatherHawk,2013-09-06 06:34:00,
2013-09-06 02:39:00,60.1,42.4,30.43,East,80,0.0,-999.0,52,0.00,,,0.00,1,WeatherHawk,2013-09-06 06:39:00,
2013-09-06 02:44:00,59.6,42.9,30.43,NW,326,0.0,-999.0,54,0.00,,,0.00,0,WeatherHawk,2013-09-06 06:44:00,
2013-09-06 02:49:00,59.4,43.7,30.43,NW,322,0.0,-999.0,56,0.00,,,0.00,0,WeatherHawk,2013-09-06 06:49:00,
2013-09-06 02:54:00,59.6,44.3,30.43,SW,227,0.0,-999.0,57,0.00,,,0.00,0,WeatherHawk,2013-09-06 06:54:00,
2013-09-06 02:59:00,59.3,44.1,30.43,SW,227,0.0,-999.0,57,0.00,,,0.00,0,WeatherHawk,2013-09-06 06:59:00,
2013-09-06 03:04:00,58.9,45.0,30.44,SW,228,0.0,-999.0,60,0.00,,,0.00,0,WeatherHawk,2013-09-06 07:04:00,
2013-09-06 03:09:00,59.1,46.5,30.43,SW,228,0.0,-999.0,63,0.00,,,0.00,0,WeatherHawk,2013-09-06 07:09:00,
2013-09-06 03:14:00,58.6,43.9,30.43,SW,228,0.0,-999.0,58,0.00,,,0.00,1,WeatherHawk,2013-09-06 07:14:00,
2013-09-06 03:19:00,57.9,45.0,30.43,SW,228,0.0,-999.0,62,0.00,,,0.00,0,WeatherHawk,2013-09-06 07:19:00,
2013-09-06 03:24:00,58.3,46.1,30.43,SW,228,0.0,-999.0,64,0.00,,,0.00,0,WeatherHawk,2013-09-06 07:24:00,
2013-09-06 03:29:00,57.9,44.1,30.43,SW,228,0.0,-999.0,60,0.00,,,0.00,0,WeatherHawk,2013-09-06 07:29:00,
2013-09-06 03:34:00,58.6,43.9,30.44,SW,228,0.0,-999.0,58,0.00,,,0.00,0,WeatherHawk,2013-09-06 07:34:00,
2013-09-06 03:39:00,57.6,43.8,30.44,SW,228,0.0,-999.0,60,0.00,,,0.00,1,WeatherHawk,2013-09-06 07:39:00,
2013-09-06 03:44:00,57.7,44.8,30.43,SW,228,0.0,-999.0,62,0.00,,,0.00,0,WeatherHawk,2013-09-06 07:44:00,
2013-09-06 03:49:00,57.8,44.0,30.43,SW,228,0.0,-999.0,60,0.00,,,0.00,0,WeatherHawk,2013-09-06 07:49:00,
2013-09-06 03:54:00,57.8,44.0,30.43,WSW,248,0.0,-999.0,60,0.00,,,0.00,1,WeatherHawk,2013-09-06 07:54:00,
2013-09-06 03:59:00,57.6,44.6,30.43,WSW,248,0.0,-999.0,62,0.00,,,0.00,0,WeatherHawk,2013-09-06 07:59:00,
2013-09-06 04:04:00,56.9,45.6,30.44,SSW,211,0.0,-999.0,66,0.00,,,0.00,0,WeatherHawk,2013-09-06 08:04:00,
2013-09-06 04:09:00,57.4,46.5,30.43,SSW,211,0.0,-999.0,67,0.00,,,0.00,0,WeatherHawk,2013-09-06 08:09:00,
2013-09-06 04:14:00,56.8,44.7,30.43,SSW,211,0.0,-999.0,64,0.00,,,0.00,0,WeatherHawk,2013-09-06 08:14:00,
2013-09-06 04:19:00,56.5,44.5,30.43,SSW,211,0.0,-999.0,64,0.00,,,0.00,0,WeatherHawk,2013-09-06 08:19:00,
2013-09-06 04:24:00,56.4,44.4,30.43,SSW,212,0.0,-999.0,64,0.00,,,0.00,0,WeatherHawk,2013-09-06 08:24:00,
2013-09-06 04:29:00,57.8,42.2,30.43,WNW,290,0.0,-999.0,56,0.00,,,0.00,0,WeatherHawk,2013-09-06 08:29:00,
2013-09-06 04:34:00,58.4,42.7,30.44,WNW,290,0.0,-999.0,56,0.00,,,0.00,1,WeatherHawk,2013-09-06 08:34:00,
2013-09-06 04:39:00,56.8,39.4,30.43,WNW,291,0.0,-999.0,52,0.00,,,0.00,0,WeatherHawk,2013-09-06 08:39:00,
2013-09-06 04:44:00,56.4,41.8,30.44,WNW,292,0.0,-999.0,58,0.00,,,0.00,0,WeatherHawk,2013-09-06 08:44:00,
2013-09-06 04:49:00,55.8,43.0,30.44,WNW,293,0.0,-999.0,62,0.00,,,0.00,0,WeatherHawk,2013-09-06 08:49:00,
2013-09-06 04:54:00,55.5,43.1,30.44,WNW,293,0.0,-999.0,63,0.00,,,0.00,0,WeatherHawk,2013-09-06 08:54:00,
2013-09-06 04:59:00,55.4,41.3,30.44,WNW,293,0.0,-999.0,59,0.00,,,0.00,1,WeatherHawk,2013-09-06 08:59:00,
2013-09-06 05:04:00,55.3,41.2,30.45,WNW,293,0.0,-999.0,59,0.00,,,0.00,0,WeatherHawk,2013-09-06 09:04:00,
2013-09-06 05:09:00,55.2,41.6,30.44,WNW,292,0.0,-999.0,60,0.00,,,0.00,0,WeatherHawk,2013-09-06 09:09:00,
2013-09-06 05:14:00,54.9,43.7,30.44,WNW,292,0.0,-999.0,66,0.00,,,0.00,0,WeatherHawk,2013-09-06 09:14:00,
2013-09-06 05:19:00,54.7,43.9,30.44,WNW,293,0.0,-999.0,67,0.00,,,0.00,0,WeatherHawk,2013-09-06 09:19:00,
2013-09-06 05:24:00,54.6,45.0,30.44,WNW,293,0.0,-999.0,70,0.00,,,0.00,0,WeatherHawk,2013-09-06 09:24:00,
2013-09-06 05:29:00,54.7,46.2,30.44,WNW,293,0.0,-999.0,73,0.00,,,0.00,0,WeatherHawk,2013-09-06 09:29:00,
2013-09-06 05:34:00,55.0,46.9,30.45,WNW,293,0.0,-999.0,74,0.00,,,0.00,0,WeatherHawk,2013-09-06 09:34:00,
2013-09-06 05:39:00,54.6,46.1,30.45,WNW,293,0.0,-999.0,73,0.00,,,0.00,0,WeatherHawk,2013-09-06 09:39:00,
2013-09-06 05:44:00,54.7,46.5,30.45,West,278,0.0,-999.0,74,0.00,,,0.00,0,WeatherHawk,2013-09-06 09:44:00,
2013-09-06 05:49:00,54.7,46.9,30.45,West,278,0.0,-999.0,75,0.00,,,0.00,0,WeatherHawk,2013-09-06 09:49:00,
2013-09-06 05:54:00,54.6,47.2,30.45,West,278,0.0,-999.0,76,0.00,,,0.00,0,WeatherHawk,2013-09-06 09:54:00,
2013-09-06 05:59:00,54.2,47.2,30.45,West,269,0.0,-999.0,77,0.00,,,0.00,0,WeatherHawk,2013-09-06 09:59:00,
2013-09-06 06:04:00,55.2,48.1,30.45,West,269,0.0,-999.0,77,0.00,,,0.00,0,WeatherHawk,2013-09-06 10:04:00,
2013-09-06 06:09:00,55.9,49.1,30.45,West,269,0.0,-999.0,78,0.00,,,0.00,1,WeatherHawk,2013-09-06 10:09:00,
2013-09-06 06:14:00,55.1,47.7,30.45,West,269,0.0,-999.0,76,0.00,,,0.00,0,WeatherHawk,2013-09-06 10:14:00,
2013-09-06 06:19:00,54.8,46.6,30.45,WNW,296,0.0,-999.0,74,0.00,,,0.00,0,WeatherHawk,2013-09-06 10:19:00,
2013-09-06 06:24:00,55.0,46.1,30.45,WNW,286,0.0,-999.0,72,0.00,,,0.00,0,WeatherHawk,2013-09-06 10:24:00,
2013-09-06 06:29:00,54.3,45.5,30.46,WSW,257,0.0,-999.0,72,0.00,,,0.00,0,WeatherHawk,2013-09-06 10:29:00,
2013-09-06 06:34:00,54.5,45.3,30.45,WSW,257,0.0,-999.0,71,0.00,,,0.00,0,WeatherHawk,2013-09-06 10:34:00,
2013-09-06 06:39:00,55.4,45.8,30.45,WSW,250,0.0,-999.0,70,0.00,,,0.00,0,WeatherHawk,2013-09-06 10:39:00,
2013-09-06 06:44:00,54.6,44.2,30.46,SW,230,0.0,-999.0,68,0.00,,,0.00,0,WeatherHawk,2013-09-06 10:44:00,
2013-09-06 06:49:00,54.4,44.5,30.46,SW,231,0.0,-999.0,69,0.00,,,0.00,0,WeatherHawk,2013-09-06 10:49:00,
2013-09-06 06:54:00,54.4,43.6,30.46,SW,231,0.0,-999.0,67,0.00,,,0.00,1,WeatherHawk,2013-09-06 10:54:00,
2013-09-06 06:59:00,54.4,44.1,30.46,SW,231,0.0,-999.0,68,0.00,,,0.00,2,WeatherHawk,2013-09-06 10:59:00,
2013-09-06 07:04:00,54.1,43.8,30.46,NW,312,0.0,-999.0,68,0.00,,,0.00,4,WeatherHawk,2013-09-06 11:04:00,
2013-09-06 07:09:00,55.1,44.7,30.46,WSW,255,0.0,-999.0,68,0.00,,,0.00,5,WeatherHawk,2013-09-06 11:09:00,
2013-09-06 07:14:00,54.7,44.3,30.46,WSW,255,0.0,-999.0,68,0.00,,,0.00,7,WeatherHawk,2013-09-06 11:14:00,
2013-09-06 07:19:00,54.3,44.0,30.46,WSW,255,0.0,-999.0,68,0.00,,,0.00,9,WeatherHawk,2013-09-06 11:19:00,
2013-09-06 07:24:00,53.9,43.2,30.46,WSW,250,0.0,-999.0,67,0.00,,,0.00,11,WeatherHawk,2013-09-06 11:24:00,
2013-09-06 07:29:00,53.2,42.5,30.46,WSW,250,0.0,-999.0,67,0.00,,,0.00,11,WeatherHawk,2013-09-06 11:29:00,
2013-09-06 07:34:00,54.8,45.2,30.46,WSW,250,0.0,-999.0,70,0.00,,,0.00,12,WeatherHawk,2013-09-06 11:34:00,
2013-09-06 07:39:00,54.8,44.4,30.46,WSW,250,0.0,-999.0,68,0.00,,,0.00,13,WeatherHawk,2013-09-06 11:39:00,
2013-09-06 07:44:00,55.1,44.3,30.46,West,260,0.0,-999.0,67,0.00,,,0.00,15,WeatherHawk,2013-09-06 11:44:00,
2013-09-06 07:49:00,54.8,43.6,30.46,West,260,0.0,-999.0,66,0.00,,,0.00,16,WeatherHawk,2013-09-06 11:49:00,
2013-09-06 07:54:00,54.4,42.9,30.46,West,260,0.0,-999.0,65,0.00,,,0.00,20,WeatherHawk,2013-09-06 11:54:00,
2013-09-06 07:59:00,54.8,43.3,30.46,West,260,0.0,-999.0,65,0.00,,,0.00,18,WeatherHawk,2013-09-06 11:59:00,
2013-09-06 08:04:00,55.3,43.8,30.46,West,260,0.0,-999.0,65,0.00,,,0.00,18,WeatherHawk,2013-09-06 12:04:00,
2013-09-06 08:09:00,54.9,43.0,30.46,West,260,0.0,-999.0,64,0.00,,,0.00,18,WeatherHawk,2013-09-06 12:09:00,
2013-09-06 08:14:00,55.4,42.1,30.46,West,260,0.0,-999.0,61,0.00,,,0.00,18,WeatherHawk,2013-09-06 12:14:00,
2013-09-06 08:19:00,55.9,41.8,30.46,NW,323,0.0,-999.0,59,0.00,,,0.00,23,WeatherHawk,2013-09-06 12:19:00,
2013-09-06 08:24:00,55.9,40.9,30.46,NW,323,0.0,-999.0,57,0.00,,,0.00,21,WeatherHawk,2013-09-06 12:24:00,
2013-09-06 08:29:00,56.4,41.3,30.45,SE,124,0.0,-999.0,57,0.00,,,0.00,22,WeatherHawk,2013-09-06 12:29:00,
2013-09-06 08:34:00,56.8,42.6,30.46,SW,219,0.0,-999.0,59,0.00,,,0.00,23,WeatherHawk,2013-09-06 12:34:00,
2013-09-06 08:39:00,57.1,42.4,30.46,SW,219,0.0,-999.0,58,0.00,,,0.00,23,WeatherHawk,2013-09-06 12:39:00,
2013-09-06 08:44:00,57.3,40.8,30.46,SW,220,0.0,-999.0,54,0.00,,,0.00,23,WeatherHawk,2013-09-06 12:44:00,
2013-09-06 08:49:00,58.7,40.1,30.46,SSW,198,0.0,-999.0,50,0.00,,,0.00,24,WeatherHawk,2013-09-06 12:49:00,
2013-09-06 08:54:00,59.0,39.9,30.45,SW,234,0.0,-999.0,49,0.00,,,0.00,26,WeatherHawk,2013-09-06 12:54:00,
2013-09-06 08:59:00,59.6,38.8,30.46,West,260,0.0,-999.0,46,0.00,,,0.00,26,WeatherHawk,2013-09-06 12:59:00,
2013-09-06 09:04:00,60.1,38.1,30.46,WSW,253,0.0,-999.0,44,0.00,,,0.00,267,WeatherHawk,2013-09-06 13:04:00,
2013-09-06 09:09:00,60.1,36.9,30.46,South,189,0.0,-999.0,42,0.00,,,0.00,284,WeatherHawk,2013-09-06 13:09:00,
2013-09-06 09:14:00,62.0,37.4,30.46,West,267,0.0,-999.0,40,0.00,,,0.00,300,WeatherHawk,2013-09-06 13:14:00,
2013-09-06 09:19:00,63.2,35.1,30.45,SW,226,0.0,-999.0,35,0.00,,,0.00,318,WeatherHawk,2013-09-06 13:19:00,
2013-09-06 09:24:00,65.7,35.1,30.45,NNE,29,0.0,-999.0,32,0.00,,,0.00,335,WeatherHawk,2013-09-06 13:24:00,
2013-09-06 09:29:00,64.9,33.5,30.45,SW,227,0.0,-999.0,31,0.00,,,0.00,348,WeatherHawk,2013-09-06 13:29:00,
2013-09-06 09:34:00,66.2,33.0,30.45,WSW,245,0.0,-999.0,29,0.00,,,0.00,365,WeatherHawk,2013-09-06 13:34:00,
2013-09-06 09:39:00,66.7,32.6,30.45,SW,224,0.0,-999.0,28,0.00,,,0.00,383,WeatherHawk,2013-09-06 13:39:00,
2013-09-06 09:44:00,64.7,29.0,30.45,SSW,192,0.0,-999.0,26,0.00,,,0.00,400,WeatherHawk,2013-09-06 13:44:00,
2013-09-06 09:49:00,65.6,29.8,30.44,NE,45,0.0,-999.0,26,0.00,,,0.00,416,WeatherHawk,2013-09-06 13:49:00,
2013-09-06 09:54:00,66.3,28.4,30.44,WSW,237,0.0,-999.0,24,0.00,,,0.00,432,WeatherHawk,2013-09-06 13:54:00,
2013-09-06 09:59:00,67.1,28.0,30.44,West,267,0.0,-999.0,23,0.00,,,0.00,448,WeatherHawk,2013-09-06 13:59:00,
2013-09-06 10:04:00,67.1,27.0,30.44,WSW,258,0.0,-999.0,22,0.00,,,0.00,466,WeatherHawk,2013-09-06 14:04:00,
2013-09-06 10:09:00,67.3,24.8,30.43,West,260,0.0,-999.0,20,0.00,,,0.00,483,WeatherHawk,2013-09-06 14:09:00,
2013-09-06 10:14:00,68.0,24.2,30.44,SE,127,0.0,-999.0,19,0.00,,,0.00,499,WeatherHawk,2013-09-06 14:14:00,
2013-09-06 10:19:00,67.7,21.4,30.43,North,0,0.0,-999.0,17,0.00,,,0.00,520,WeatherHawk,2013-09-06 14:19:00,
2013-09-06 10:24:00,68.4,18.9,30.43,WSW,245,0.0,-999.0,15,0.00,,,0.00,529,WeatherHawk,2013-09-06 14:24:00,
2013-09-06 10:29:00,69.5,21.4,30.42,SW,217,0.0,-999.0,16,0.00,,,0.00,548,WeatherHawk,2013-09-06 14:29:00,
2013-09-06 10:34:00,70.6,20.7,30.44,NE,45,0.0,-999.0,15,0.00,,,0.00,553,WeatherHawk,2013-09-06 14:34:00,
2013-09-06 10:39:00,73.2,17.5,30.42,West,270,0.0,-999.0,12,0.00,,,0.00,573,WeatherHawk,2013-09-06 14:39:00,
2013-09-06 10:44:00,69.4,12.6,30.42,NNW,336,1.0,-999.0,11,0.00,,,0.00,583,WeatherHawk,2013-09-06 14:44:00,
2013-09-06 10:49:00,69.5,18.2,30.42,SE,136,0.0,-999.0,14,0.00,,,0.00,599,WeatherHawk,2013-09-06 14:49:00,
2013-09-06 10:54:00,71.5,16.2,30.43,SW,227,0.0,-999.0,12,0.00,,,0.00,610,WeatherHawk,2013-09-06 14:54:00,
2013-09-06 10:59:00,70.3,13.3,30.41,SSE,161,0.0,-999.0,11,0.00,,,0.00,621,WeatherHawk,2013-09-06 14:59:00,
2013-09-06 11:04:00,72.7,10.6,30.42,West,281,0.0,-999.0,9,0.00,,,0.00,630,WeatherHawk,2013-09-06 15:04:00,
2013-09-06 11:09:00,71.7,12.3,30.42,SE,139,1.0,-999.0,10,0.00,,,0.00,643,WeatherHawk,2013-09-06 15:09:00,
2013-09-06 11:14:00,71.4,14.2,30.41,SSE,147,0.0,-999.0,11,0.00,,,0.00,650,WeatherHawk,2013-09-06 15:14:00,
2013-09-06 11:19:00,77.7,14.4,30.40,NNE,18,0.0,-999.0,9,0.00,,,0.00,659,WeatherHawk,2013-09-06 15:19:00,
2013-09-06 11:24:00,71.7,9.9,30.41,ESE,107,0.0,-999.0,9,0.00,,,0.00,675,WeatherHawk,2013-09-06 15:24:00,
2013-09-06 11:29:00,74.3,-1.0,30.40,SE,129,0.0,-999.0,5,0.00,,,0.00,683,WeatherHawk,2013-09-06 15:29:00,
2013-09-06 11:34:00,75.2,12.5,30.40,SE,140,0.0,-999.0,9,0.00,,,0.00,690,WeatherHawk,2013-09-06 15:34:00,
2013-09-06 11:39:00,70.8,0.4,30.40,SSE,159,2.0,-999.0,6,0.00,,,0.00,697,WeatherHawk,2013-09-06 15:39:00,
2013-09-06 11:44:00,75.8,7.3,30.40,NW,306,0.0,-999.0,7,0.00,,,0.00,707,WeatherHawk,2013-09-06 15:44:00,
2013-09-06 11:49:00,78.9,9.6,30.39,NNE,27,0.0,-999.0,7,0.00,,,0.00,721,WeatherHawk,2013-09-06 15:49:00,
2013-09-06 11:54:00,76.8,4.7,30.39,WSW,238,0.0,-999.0,6,0.00,,,0.00,727,WeatherHawk,2013-09-06 15:54:00,
2013-09-06 11:59:00,76.1,4.2,30.39,East,82,2.0,-999.0,6,0.00,,,0.00,732,WeatherHawk,2013-09-06 15:59:00,
2013-09-06 12:04:00,78.6,-2.7,30.39,NNW,329,0.0,-999.0,4,0.00,,,0.00,744,WeatherHawk,2013-09-06 16:04:00,
2013-09-06 12:09:00,74.9,6.7,30.39,NNW,332,0.0,-999.0,7,0.00,,,0.00,751,WeatherHawk,2013-09-06 16:09:00,
2013-09-06 12:14:00,80.7,7.5,30.38,West,267,0.0,-999.0,6,0.00,,,0.00,755,WeatherHawk,2013-09-06 16:14:00,
2013-09-06 12:19:00,82.1,-0.3,30.36,West,266,0.0,-999.0,4,0.00,,,0.00,761,WeatherHawk,2013-09-06 16:19:00,
2013-09-06 12:24:00,79.3,-2.2,30.38,WNW,284,0.0,-999.0,4,0.00,,,0.00,764,WeatherHawk,2013-09-06 16:24:00,
2013-09-06 12:29:00,76.8,-3.9,30.38,West,261,1.0,-999.0,4,0.00,,,0.00,771,WeatherHawk,2013-09-06 16:29:00,
2013-09-06 12:34:00,77.6,1.4,30.37,NW,315,4.0,-999.0,5,0.00,,,0.00,776,WeatherHawk,2013-09-06 16:34:00,
2013-09-06 12:39:00,81.1,-0.9,30.37,NW,320,0.0,-999.0,4,0.00,,,0.00,783,WeatherHawk,2013-09-06 16:39:00,
2013-09-06 12:44:00,81.1,3.8,30.37,West,268,0.0,-999.0,5,0.00,,,0.00,787,WeatherHawk,2013-09-06 16:44:00,
2013-09-06 12:49:00,79.5,2.7,30.37,NW,324,1.0,-999.0,5,0.00,,,0.00,792,WeatherHawk,2013-09-06 16:49:00,
2013-09-06 12:54:00,78.9,-2.5,30.35,WNW,298,2.0,-999.0,4,0.00,,,0.00,791,WeatherHawk,2013-09-06 16:54:00,
2013-09-06 12:59:00,78.3,-2.9,30.37,WNW,293,0.0,-999.0,4,0.00,,,0.00,797,WeatherHawk,2013-09-06 16:59:00,
2013-09-06 13:04:00,84.8,6.4,30.36,NW,323,0.0,-999.0,5,0.00,,,0.00,801,WeatherHawk,2013-09-06 17:04:00,
2013-09-06 13:09:00,83.4,5.4,30.35,WSW,250,0.0,-999.0,5,0.00,,,0.00,805,WeatherHawk,2013-09-06 17:09:00,
2013-09-06 13:14:00,81.7,4.3,30.35,SE,139,0.0,-999.0,5,0.00,,,0.00,807,WeatherHawk,2013-09-06 17:14:00,
2013-09-06 13:19:00,83.5,0.7,30.34,ENE,74,0.0,-999.0,4,0.00,,,0.00,810,WeatherHawk,2013-09-06 17:19:00,
2013-09-06 13:24:00,85.0,1.7,30.34,SSW,213,0.0,-999.0,4,0.00,,,0.00,809,WeatherHawk,2013-09-06 17:24:00,
2013-09-06 13:29:00,79.1,2.4,30.35,ESE,119,0.0,-999.0,5,0.00,,,0.00,813,WeatherHawk,2013-09-06 17:29:00,
2013-09-06 13:34:00,78.8,-2.6,30.34,WSW,237,1.0,-999.0,4,0.00,,,0.00,811,WeatherHawk,2013-09-06 17:34:00,
2013-09-06 13:39:00,80.0,-1.7,30.33,WSW,251,1.0,-999.0,4,0.00,,,0.00,809,WeatherHawk,2013-09-06 17:39:00,
2013-09-06 13:44:00,79.7,-1.9,30.32,WNW,298,0.0,-999.0,4,0.00,,,0.00,809,WeatherHawk,2013-09-06 17:44:00,
2013-09-06 13:49:00,78.9,-2.4,30.33,West,280,0.0,-999.0,4,0.00,,,0.00,809,WeatherHawk,2013-09-06 17:49:00,
2013-09-06 13:54:00,83.8,0.9,30.33,South,178,0.0,-999.0,4,0.00,,,0.00,804,WeatherHawk,2013-09-06 17:54:00,
2013-09-06 13:59:00,82.5,0.0,30.33,WSW,239,0.0,-999.0,4,0.00,,,0.00,800,WeatherHawk,2013-09-06 17:59:00,
2013-09-06 14:04:00,80.1,-1.6,30.33,NW,312,3.0,-999.0,4,0.00,,,0.00,797,WeatherHawk,2013-09-06 18:04:00,
2013-09-06 14:09:00,79.7,-1.9,30.34,NW,308,4.0,-999.0,4,0.00,,,0.00,797,WeatherHawk,2013-09-06 18:09:00,
2013-09-06 14:14:00,82.5,0.0,30.33,WSW,258,0.0,-999.0,4,0.00,,,0.00,792,WeatherHawk,2013-09-06 18:14:00,
2013-09-06 14:19:00,78.3,-2.9,30.33,WSW,255,0.0,-999.0,4,0.00,,,0.00,793,WeatherHawk,2013-09-06 18:19:00,
2013-09-06 14:24:00,84.8,1.5,30.32,WNW,296,0.0,-999.0,4,0.00,,,0.00,786,WeatherHawk,2013-09-06 18:24:00,
2013-09-06 14:29:00,82.9,0.3,30.31,NNW,337,0.0,-999.0,4,0.00,,,0.00,785,WeatherHawk,2013-09-06 18:29:00,
2013-09-06 14:34:00,82.1,-0.3,30.31,SE,145,0.0,-999.0,4,0.00,,,0.00,779,WeatherHawk,2013-09-06 18:34:00,
2013-09-06 14:39:00,80.5,-1.4,30.32,West,281,0.0,-999.0,4,0.00,,,0.00,774,WeatherHawk,2013-09-06 18:39:00,
2013-09-06 14:44:00,80.4,-1.5,30.30,WNW,293,0.0,-999.0,4,0.00,,,0.00,771,WeatherHawk,2013-09-06 18:44:00,
2013-09-06 14:49:00,80.0,-1.7,30.31,WNW,288,0.0,-999.0,4,0.00,,,0.00,757,WeatherHawk,2013-09-06 18:49:00,
2013-09-06 14:54:00,83.7,0.8,30.32,South,182,0.0,-999.0,4,0.00,,,0.00,755,WeatherHawk,2013-09-06 18:54:00,
2013-09-06 14:59:00,87.2,3.2,30.33,NNE,29,0.0,-999.0,4,0.00,,,0.00,754,WeatherHawk,2013-09-06 18:59:00,
2013-09-06 15:04:00,85.5,2.1,30.30,NW,324,0.0,-999.0,4,0.00,,,0.00,747,WeatherHawk,2013-09-06 19:04:00,
2013-09-06 15:09:00,80.1,-1.6,30.31,WSW,254,0.0,-999.0,4,0.00,,,0.00,739,WeatherHawk,2013-09-06 19:09:00,
2013-09-06 15:14:00,85.2,1.8,30.30,South,172,0.0,-999.0,4,0.00,,,0.00,737,WeatherHawk,2013-09-06 19:14:00,
2013-09-06 15:19:00,83.3,0.5,30.30,West,265,0.0,-999.0,4,0.00,,,0.00,699,WeatherHawk,2013-09-06 19:19:00,
2013-09-06 15:24:00,84.4,1.3,30.30,West,274,0.0,-999.0,4,0.00,,,0.00,721,WeatherHawk,2013-09-06 19:24:00,
2013-09-06 15:29:00,86.2,2.6,30.30,SSW,194,0.0,-999.0,4,0.00,,,0.00,712,WeatherHawk,2013-09-06 19:29:00,
2013-09-06 15:34:00,81.2,-0.9,30.29,East,96,0.0,-999.0,4,0.00,,,0.00,698,WeatherHawk,2013-09-06 19:34:00,
2013-09-06 15:39:00,85.9,2.3,30.29,NW,311,0.0,-999.0,4,0.00,,,0.00,693,WeatherHawk,2013-09-06 19:39:00,
2013-09-06 15:44:00,85.0,1.7,30.29,East,94,0.0,-999.0,4,0.00,,,0.00,684,WeatherHawk,2013-09-06 19:44:00,
2013-09-06 15:49:00,81.2,3.9,30.29,West,267,0.0,-999.0,5,0.00,,,0.00,673,WeatherHawk,2013-09-06 19:49:00,
2013-09-06 15:54:00,83.5,0.7,30.29,WNW,283,0.0,-999.0,4,0.00,,,0.00,666,WeatherHawk,2013-09-06 19:54:00,
2013-09-06 15:59:00,86.3,7.5,30.30,South,190,0.0,-999.0,5,0.00,,,0.00,653,WeatherHawk,2013-09-06 19:59:00,
2013-09-06 16:04:00,85.5,2.1,30.30,West,272,0.0,-999.0,4,0.00,,,0.00,639,WeatherHawk,2013-09-06 20:04:00,
2013-09-06 16:09:00,84.0,1.0,30.29,SE,136,0.0,-999.0,4,0.00,,,0.00,629,WeatherHawk,2013-09-06 20:09:00,
2013-09-06 16:14:00,79.8,-1.8,30.28,NW,309,2.0,-999.0,4,0.00,,,0.00,619,WeatherHawk,2013-09-06 20:14:00,
2013-09-06 16:19:00,85.2,1.9,30.28,SW,229,0.0,-999.0,4,0.00,,,0.00,604,WeatherHawk,2013-09-06 20:19:00,
2013-09-06 16:24:00,84.5,1.4,30.27,NW,314,0.0,-999.0,4,0.00,,,0.00,596,WeatherHawk,2013-09-06 20:24:00,
2013-09-06 16:29:00,87.0,3.1,30.28,WNW,298,0.0,-999.0,4,0.00,,,0.00,572,WeatherHawk,2013-09-06 20:29:00,
2013-09-06 16:34:00,80.4,-1.4,30.28,ESE,121,1.0,-999.0,4,0.00,,,0.00,567,WeatherHawk,2013-09-06 20:34:00,
2013-09-06 16:39:00,88.3,4.0,30.28,WNW,294,0.0,-999.0,4,0.00,,,0.00,551,WeatherHawk,2013-09-06 20:39:00,
2013-09-06 16:44:00,83.7,0.8,30.28,SW,236,0.0,-999.0,4,0.00,,,0.00,542,WeatherHawk,2013-09-06 20:44:00,
2013-09-06 16:49:00,83.5,0.7,30.28,NW,304,0.0,-999.0,4,0.00,,,0.00,524,WeatherHawk,2013-09-06 20:49:00,
2013-09-06 16:54:00,83.0,5.2,30.26,SE,137,0.0,-999.0,5,0.00,,,0.00,526,WeatherHawk,2013-09-06 20:54:00,
2013-09-06 16:59:00,82.8,0.2,30.28,SE,131,0.0,-999.0,4,0.00,,,0.00,516,WeatherHawk,2013-09-06 20:59:00,
2013-09-06 17:04:00,84.2,1.2,30.27,NNW,341,0.0,-999.0,4,0.00,,,0.00,503,WeatherHawk,2013-09-06 21:04:00,
2013-09-06 17:09:00,86.4,2.6,30.28,SSW,199,0.0,-999.0,4,0.00,,,0.00,493,WeatherHawk,2013-09-06 21:09:00,
2013-09-06 17:14:00,85.4,2.0,30.28,SW,224,0.0,-999.0,4,0.00,,,0.00,473,WeatherHawk,2013-09-06 21:14:00,
2013-09-06 17:19:00,85.1,1.8,30.27,SW,227,0.0,-999.0,4,0.00,,,0.00,453,WeatherHawk,2013-09-06 21:19:00,
2013-09-06 17:24:00,84.8,6.4,30.26,NNW,330,0.0,-999.0,5,0.00,,,0.00,454,WeatherHawk,2013-09-06 21:24:00,
2013-09-06 17:29:00,86.4,7.5,30.27,SW,228,0.0,-999.0,5,0.00,,,0.00,429,WeatherHawk,2013-09-06 21:29:00,
2013-09-06 17:34:00,81.3,3.9,30.27,NW,322,0.0,-999.0,5,0.00,,,0.00,414,WeatherHawk,2013-09-06 21:34:00,
2013-09-06 17:39:00,84.9,6.4,30.27,South,183,0.0,-999.0,5,0.00,,,0.00,394,WeatherHawk,2013-09-06 21:39:00,
2013-09-06 17:44:00,87.0,3.1,30.27,SW,219,0.0,-999.0,4,0.00,,,0.00,405,WeatherHawk,2013-09-06 21:44:00,
2013-09-06 17:49:00,84.0,5.9,30.27,SSE,159,0.0,-999.0,5,0.00,,,0.00,364,WeatherHawk,2013-09-06 21:49:00,
2013-09-06 17:54:00,83.3,5.4,30.28,SW,226,0.0,-999.0,5,0.00,,,0.00,323,WeatherHawk,2013-09-06 21:54:00,
2013-09-06 17:59:00,83.1,0.4,30.29,WSW,240,0.0,-999.0,4,0.00,,,0.00,335,WeatherHawk,2013-09-06 21:59:00,
2013-09-06 18:04:00,82.3,-0.1,30.28,SW,215,0.0,-999.0,4,0.00,,,0.00,212,WeatherHawk,2013-09-06 22:04:00,
2013-09-06 18:09:00,81.0,7.7,30.28,SE,136,0.0,-999.0,6,0.00,,,0.00,264,WeatherHawk,2013-09-06 22:09:00,
2013-09-06 18:14:00,81.4,11.4,30.27,WSW,255,0.0,-999.0,7,0.00,,,0.00,252,WeatherHawk,2013-09-06 22:14:00,
2013-09-06 18:19:00,80.6,10.9,30.29,SE,146,0.0,-999.0,7,0.00,,,0.00,175,WeatherHawk,2013-09-06 22:19:00,
2013-09-06 18:24:00,78.1,12.0,30.30,South,189,0.0,-999.0,8,0.00,,,0.00,146,WeatherHawk,2013-09-06 22:24:00,
2013-09-06 18:29:00,77.1,8.3,30.29,West,273,0.0,-999.0,7,0.00,,,0.00,122,WeatherHawk,2013-09-06 22:29:00,
2013-09-06 18:34:00,76.2,17.9,30.30,SW,227,0.0,-999.0,11,0.00,,,0.00,99,WeatherHawk,2013-09-06 22:34:00,
2013-09-06 18:39:00,74.2,18.4,30.29,SW,233,0.0,-999.0,12,0.00,,,0.00,103,WeatherHawk,2013-09-06 22:39:00,
2013-09-06 18:44:00,73.5,19.7,30.30,SW,224,0.0,-999.0,13,0.00,,,0.00,108,WeatherHawk,2013-09-06 22:44:00,
2013-09-06 18:49:00,72.9,22.5,30.32,South,172,0.0,-999.0,15,0.00,,,0.00,91,WeatherHawk,2013-09-06 22:49:00,
2013-09-06 18:54:00,72.2,23.5,30.31,SSW,208,0.0,-999.0,16,0.00,,,0.00,98,WeatherHawk,2013-09-06 22:54:00,
2013-09-06 18:59:00,72.0,26.2,30.31,SSW,208,0.0,-999.0,18,0.00,,,0.00,114,WeatherHawk,2013-09-06 22:59:00,
2013-09-06 19:04:00,71.6,25.9,30.31,SW,217,0.0,-999.0,18,0.00,,,0.00,82,WeatherHawk,2013-09-06 23:04:00,
2013-09-06 19:09:00,71.2,28.1,30.30,SW,224,0.0,-999.0,20,0.00,,,0.00,61,WeatherHawk,2013-09-06 23:09:00,
2013-09-06 19:14:00,70.0,29.4,30.32,SW,222,0.0,-999.0,22,0.00,,,0.00,49,WeatherHawk,2013-09-06 23:14:00,
2013-09-06 19:19:00,69.7,31.3,30.31,SW,215,0.0,-999.0,24,0.00,,,0.00,52,WeatherHawk,2013-09-06 23:19:00,
2013-09-06 19:24:00,68.8,32.6,30.31,South,186,0.0,-999.0,26,0.00,,,0.00,36,WeatherHawk,2013-09-06 23:24:00,
2013-09-06 19:29:00,68.3,33.0,30.32,South,183,0.0,-999.0,27,0.00,,,0.00,31,WeatherHawk,2013-09-06 23:29:00,
2013-09-06 19:34:00,67.1,33.8,30.31,SSE,158,0.0,-999.0,29,0.00,,,0.00,22,WeatherHawk,2013-09-06 23:34:00,
2013-09-06 19:39:00,66.9,34.4,30.33,SSW,204,0.0,-999.0,30,0.00,,,0.00,24,WeatherHawk,2013-09-06 23:39:00,
2013-09-06 19:44:00,66.0,35.3,30.33,SSW,210,0.0,-999.0,32,0.00,,,0.00,10,WeatherHawk,2013-09-06 23:44:00,
2013-09-06 19:49:00,65.6,35.7,30.33,WSW,250,0.0,-999.0,33,0.00,,,0.00,4,WeatherHawk,2013-09-06 23:49:00,
2013-09-06 19:54:00,65.3,36.9,30.33,WSW,243,0.0,-999.0,35,0.00,,,0.00,3,WeatherHawk,2013-09-06 23:54:00,
2013-09-06 19:59:00,64.6,37.0,30.34,SSE,156,0.0,-999.0,36,0.00,,,0.00,4,WeatherHawk,2013-09-06 23:59:00,
2013-09-06 20:04:00,64.0,37.9,30.34,SSW,207,0.0,-999.0,38,0.00,,,0.00,2,WeatherHawk,2013-09-07 00:04:00,
2013-09-06 20:09:00,63.5,38.1,30.33,WSW,247,0.0,-999.0,39,0.00,,,0.00,1,WeatherHawk,2013-09-07 00:09:00,
2013-09-06 20:14:00,63.3,38.6,30.34,SE,146,0.0,-999.0,40,0.00,,,0.00,2,WeatherHawk,2013-09-07 00:14:00,
2013-09-06 20:19:00,62.7,39.3,30.33,West,272,0.0,-999.0,42,0.00,,,0.00,0,WeatherHawk,2013-09-07 00:19:00,
2013-09-06 20:24:00,62.5,39.7,30.34,South,181,0.0,-999.0,43,0.00,,,0.00,0,WeatherHawk,2013-09-07 00:24:00,
2013-09-06 20:29:00,62.4,40.2,30.34,SSW,205,0.0,-999.0,44,0.00,,,0.00,1,WeatherHawk,2013-09-07 00:29:00,
2013-09-06 20:34:00,62.3,40.7,30.34,SSW,206,0.0,-999.0,45,0.00,,,0.00,0,WeatherHawk,2013-09-07 00:34:00,
2013-09-06 20:39:00,62.0,40.4,30.35,SSW,205,0.0,-999.0,45,0.00,,,0.00,0,WeatherHawk,2013-09-07 00:39:00,
2013-09-06 20:44:00,61.7,40.1,30.34,SW,226,0.0,-999.0,45,0.00,,,0.00,0,WeatherHawk,2013-09-07 00:44:00,
2013-09-06 20:49:00,61.6,40.6,30.35,SW,220,0.0,-999.0,46,0.00,,,0.00,0,WeatherHawk,2013-09-07 00:49:00,
2013-09-06 20:54:00,61.4,40.4,30.35,SW,220,0.0,-999.0,46,0.00,,,0.00,0,WeatherHawk,2013-09-07 00:54:00,
2013-09-06 20:59:00,61.1,40.7,30.35,SW,233,0.0,-999.0,47,0.00,,,0.00,0,WeatherHawk,2013-09-07 00:59:00,
2013-09-06 21:04:00,60.8,40.5,30.36,SW,233,0.0,-999.0,47,0.00,,,0.00,2,WeatherHawk,2013-09-07 01:04:00,
2013-09-06 21:09:00,60.8,41.0,30.35,SSW,213,0.0,-999.0,48,0.00,,,0.00,0,WeatherHawk,2013-09-07 01:09:00,
2013-09-06 21:14:00,61.1,41.8,30.35,SW,224,1.0,-999.0,49,0.00,,,0.00,1,WeatherHawk,2013-09-07 01:14:00,
2013-09-06 21:19:00,59.7,40.6,30.36,SSW,202,0.0,-999.0,49,0.00,,,0.00,0,WeatherHawk,2013-09-07 01:19:00,
2013-09-06 21:24:00,58.8,39.7,30.35,SSW,202,0.0,-999.0,49,0.00,,,0.00,0,WeatherHawk,2013-09-07 01:24:00,
2013-09-06 21:29:00,58.9,40.3,30.36,SSW,202,0.0,-999.0,50,0.00,,,0.00,0,WeatherHawk,2013-09-07 01:29:00,
2013-09-06 21:34:00,58.6,41.0,30.36,SSW,202,0.0,-999.0,52,0.00,,,0.00,0,WeatherHawk,2013-09-07 01:34:00,
2013-09-06 21:39:00,58.5,41.4,30.36,SSW,202,0.0,-999.0,53,0.00,,,0.00,0,WeatherHawk,2013-09-07 01:39:00,
2013-09-06 21:44:00,58.4,41.8,30.36,SSW,202,0.0,-999.0,54,0.00,,,0.00,2,WeatherHawk,2013-09-07 01:44:00,
2013-09-06 21:49:00,58.1,42.0,30.35,SSW,201,0.0,-999.0,55,0.00,,,0.00,0,WeatherHawk,2013-09-07 01:49:00,
2013-09-06 21:54:00,57.8,42.2,30.37,SSE,162,0.0,-999.0,56,0.00,,,0.00,0,WeatherHawk,2013-09-07 01:54:00,
2013-09-06 21:59:00,57.5,42.4,30.36,SSE,162,0.0,-999.0,57,0.00,,,0.00,0,WeatherHawk,2013-09-07 01:59:00,
2013-09-06 22:04:00,58.4,43.7,30.36,SW,222,0.0,-999.0,58,0.00,,,0.00,0,WeatherHawk,2013-09-07 02:04:00,
2013-09-06 22:09:00,58.0,43.3,30.36,South,175,0.0,-999.0,58,0.00,,,0.00,1,WeatherHawk,2013-09-07 02:09:00,
2013-09-06 22:14:00,57.8,43.1,30.35,South,176,0.0,-999.0,58,0.00,,,0.00,1,WeatherHawk,2013-09-07 02:14:00,
2013-09-06 22:19:00,58.0,43.3,30.36,NE,55,0.0,-999.0,58,0.00,,,0.00,0,WeatherHawk,2013-09-07 02:19:00,
2013-09-06 22:24:00,57.4,42.3,30.36,ENE,60,0.0,-999.0,57,0.00,,,0.00,1,WeatherHawk,2013-09-07 02:24:00,
2013-09-06 22:29:00,57.2,42.1,30.37,SSE,163,0.0,-999.0,57,0.00,,,0.00,1,WeatherHawk,2013-09-07 02:29:00,
2013-09-06 22:34:00,57.1,42.9,30.36,SW,231,0.0,-999.0,59,0.00,,,0.00,0,WeatherHawk,2013-09-07 02:34:00,
2013-09-06 22:39:00,56.4,42.7,30.36,SW,231,0.0,-999.0,60,0.00,,,0.00,0,WeatherHawk,2013-09-07 02:39:00,
2013-09-06 22:44:00,56.5,42.8,30.36,SW,231,0.0,-999.0,60,0.00,,,0.00,0,WeatherHawk,2013-09-07 02:44:00,
2013-09-06 22:49:00,56.3,42.6,30.37,SW,231,0.0,-999.0,60,0.00,,,0.00,0,WeatherHawk,2013-09-07 02:49:00,
2013-09-06 22:54:00,55.9,43.0,30.36,SW,231,0.0,-999.0,62,0.00,,,0.00,0,WeatherHawk,2013-09-07 02:54:00,
2013-09-06 22:59:00,56.4,44.0,30.37,SW,231,0.0,-999.0,63,0.00,,,0.00,0,WeatherHawk,2013-09-07 02:59:00,
2013-09-06 23:04:00,55.5,43.1,30.37,SW,231,0.0,-999.0,63,0.00,,,0.00,0,WeatherHawk,2013-09-07 03:04:00,
2013-09-06 23:09:00,56.1,44.5,30.37,SW,231,0.0,-999.0,65,0.00,,,0.00,0,WeatherHawk,2013-09-07 03:09:00,
2013-09-06 23:14:00,55.7,44.6,30.37,SW,231,0.0,-999.0,66,0.00,,,0.00,0,WeatherHawk,2013-09-07 03:14:00,
2013-09-06 23:19:00,55.5,45.1,30.37,ESE,115,0.0,-999.0,68,0.00,,,0.00,0,WeatherHawk,2013-09-07 03:19:00,
2013-09-06 23:24:00,55.2,44.8,30.38,ESE,115,0.0,-999.0,68,0.00,,,0.00,0,WeatherHawk,2013-09-07 03:24:00,
2013-09-06 23:29:00,55.4,45.4,30.37,West,271,0.0,-999.0,69,0.00,,,0.00,1,WeatherHawk,2013-09-07 03:29:00,
2013-09-06 23:34:00,55.2,45.2,30.38,NW,321,0.0,-999.0,69,0.00,,,0.00,0,WeatherHawk,2013-09-07 03:34:00,
2013-09-06 23:39:00,55.4,45.4,30.37,SSW,199,0.0,-999.0,69,0.00,,,0.00,0,WeatherHawk,2013-09-07 03:39:00,
2013-09-06 23:44:00,55.3,45.3,30.36,SSW,199,0.0,-999.0,69,0.00,,,0.00,1,WeatherHawk,2013-09-07 03:44:00,
2013-09-06 23:49:00,55.6,45.6,30.37,WSW,253,0.0,-999.0,69,0.00,,,0.00,0,WeatherHawk,2013-09-07 03:49:00,
2013-09-06 23:54:00,54.8,44.8,30.37,WSW,252,0.0,-999.0,69,0.00,,,0.00,0,WeatherHawk,2013-09-07 03:54:00,
2013-09-06 23:59:00,54.7,45.1,30.38,WSW,252,0.0,-999.0,70,0.00,,,0.00,0,WeatherHawk,2013-09-07 03:59:00,